{"data":{"norad_id":68098,"intl_designator":"2026-043A","name":"GLOBAL-34","alt_names":[],"object_type":"PAYLOAD","status":"ACTIVE","operator":null,"country":"US","launch_date":"2026-03-05","launch_site_code":"RLLB","launch_vehicle":null,"mission":null,"orbit_class":"UNKNOWN","rcs_meters":null,"size_class":null,"mass_kg":null,"dimensions":null,"purposes":[],"wikipedia_slug":null,"has_3d_model":false,"image_url":null,"decayed_at":null,"tle_current":{"epoch":"2026-09-20T15:21:57.924864Z","epoch_age_seconds":66608,"freshness":"FRESH","line1":"1 68098U 26043A   26263.64025376  .00007723  00000+0  23536-3 0  9998","line2":"2 68098  42.0215  28.1789 0003389 256.6001 103.4460 15.34237319 30486","mean_motion":15.34237319,"eccentricity":0.0003389,"inclination_deg":42.0215,"raan_deg":28.1789,"arg_perigee_deg":256.6001,"mean_anomaly_deg":103.446,"bstar":0.00023536,"rev_number":3048,"period_min":93.857709114948,"perigee_km":460.86828050925,"apogee_km":465.50532978438,"semimajor_km":6841.3238051468,"source":"CELESTRAK","updated_at":"2026-09-21T09:00:17.060216Z"}}}